Theta_e
284 283 283 283 284 283 283 283 283 283 284 285 286 287 286 286 283 283 283 283 281 281 283 283 283 285 287 287 287 287 287 288 288 287 288 287 287 294 299 301 302 303 302 301 300 300 299 300 300 300 300 301 302 302 302 302 303 304 304 304 304 304 302 301 301 300 300 300 300 300 300 300 300 300
284 284 284 283 283 284 283 283 283 283 284 283 284 285 286 286 285 285 283 284 283 281 281 283 283 283 285 287 287 287 287 289 289 287 287 286 286 291 296 299 301 302 302 300 299 299 299 299 298 299 299 300 301 302 301 301 301 302 302 303 302 302 301 301 300 299 299 299 299 300 300 300 300 300
284 284 284 284 283 284 283 283 283 283 283 283 283 284 284 284 285 285 285 282 285 284 283 282 284 283 284 286 286 287 287 288 288 287 287 286 287 290 293 296 299 300 301 300 299 300 299 298 298 298 298 298 300 300 300 299 300 300 300 300 300 300 300 299 299 299 298 298 299 299 299 299 300 300
284 283 283 283 283 284 283 283 283 283 282 283 283 283 283 284 284 285 284 283 284 283 284 284 284 284 284 285 285 285 286 287 289 286 286 285 287 287 287 294 297 298 300 300 300 299 299 298 297 297 297 298 299 299 299 298 299 298 299 299 299 298 299 298 298 298 297 297 298 298 298 299 298 299
283 283 283 283 284 284 283 283 283 283 283 282 282 282 282 283 283 283 283 282 283 284 282 282 282 283 283 283 285 284 285 284 285 287 285 284 283 284 285 287 293 296 299 300 299 299 299 298 297 297 296 297 297 298 298 297 297 298 298 298 299 299 298 299 298 298 297 297 297 297 297 298 298 298
284 284 283 283 283 283 283 283 283 283 283 282 282 282 281 282 283 283 283 283 283 283 283 281 280 280 283 283 284 284 284 284 284 284 285 283 282 283 283 284 286 294 297 299 298 298 298 298 298 297 296 296 297 297 298 297 297 297 297 296 297 298 298 299 298 297 296 297 297 297 297 297 298 297
282 282 283 283 284 284 283 283 283 283 283 283 283 283 282 282 282 282 283 283 282 283 283 282 281 280 281 283 283 284 285 285 284 284 284 283 282 282 282 282 283 290 295 298 298 298 298 297 297 297 296 296 296 296 297 296 296 297 297 296 295 296 297 298 297 296 296 297 297 297 297 297 297 297
281 281 281 282 283 284 283 283 283 283 283 283 283 283 283 283 283 282 282 282 282 283 282 282 281 281 280 282 283 284 284 284 283 283 284 284 282 282 282 281 281 286 293 296 297 297 297 297 297 297 296 296 296 296 296 296 295 295 296 296 295 295 296 296 296 296 296 296 297 297 297 297 296 296
280 281 281 281 282 282 282 283 283 283 283 284 284 283 283 283 283 283 282 282 282 282 281 283 281 280 281 282 282 283 283 282 282 282 282 282 282 281 281 281 282 285 290 293 295 296 296 296 296 296 296 296 296 296 296 296 295 294 295 294 294 295 295 295 295 294 294 295 295 296 296 296 296 296
280 280 281 281 281 281 281 281 282 283 283 283 284 284 284 284 284 284 283 283 282 282 282 282 282 279 280 280 281 282 283 282 281 281 281 280 280 280 279 279 281 281 283 286 291 293 294 295 296 296 296 296 296 296 296 295 295 293 293 293 293 294 294 294 293 293 293 294 294 295 296 296 295 295
280 280 280 281 281 281 281 281 281 282 282 283 283 284 284 284 284 284 284 283 282 282 282 282 282 281 280 281 281 281 282 283 282 281 280 279 279 279 279 279 280 281 281 285 289 290 291 292 293 293 294 295 296 296 296 295 294 293 293 293 293 294 293 293 292 292 292 293 293 293 294 294 295 294
279 280 280 280 281 281 281 281 282 282 282 283 282 283 284 284 283 283 283 283 283 283 282 282 282 281 279 279 280 280 280 280 281 281 281 279 278 278 279 280 280 280 280 280 282 287 290 291 292 293 294 295 295 295 295 294 293 292 292 293 293 293 293 293 292 292 291 291 292 292 292 292 293 294
279 279 280 280 281 281 283 284 284 285 285 282 282 283 283 283 283 283 283 283 283 283 283 282 283 281 279 279 280 278 279 279 280 281 281 280 281 280 279 280 281 281 280 280 280 282 285 286 287 288 289 290 293 293 293 293 292 292 293 292 293 292 293 293 292 291 291 291 291 291 292 291 292 293
278 278 279 280 282 283 284 284 285 286 287 287 285 283 283 283 283 283 283 283 283 283 282 282 282 281 281 280 280 280 280 281 281 280 280 279 280 279 279 279 280 281 280 279 278 280 284 284 284 285 286 287 290 291 292 290 291 292 293 293 292 292 292 292 292 291 291 291 291 291 291 291 290 291
276 277 278 278 280 281 282 282 284 286 286 287 287 287 287 286 284 282 282 282 283 282 282 283 283 282 282 282 282 281 281 281 281 281 280 280 280 279 277 277 279 281 280 279 278 279 282 284 282 283 284 285 287 289 290 292 292 292 293 292 292 292 292 292 291 290 291 291 291 291 291 290 290 290
276 276 277 278 279 279 279 280 280 282 284 285 286 287 287 287 288 288 285 283 282 282 282 282 283 283 283 283 283 282 281 280 280 281 281 280 280 279 279 279 280 280 281 278 278 278 281 283 283 282 283 284 285 288 290 293 293 293 293 292 292 292 292 291 290 290 290 291 291 290 290 290 290 290
275 275 276 276 277 278 280 280 279 279 279 283 284 285 286 286 287 288 289 289 286 284 283 282 282 283 283 283 283 283 282 282 280 281 280 280 280 280 280 280 281 279 281 279 278 278 280 281 281 281 282 283 284 286 290 292 293 293 293 293 292 292 291 291 290 290 290 290 290 290 290 290 290 289
274 274 274 275 275 276 277 277 278 278 278 278 279 279 280 281 283 286 287 288 288 287 285 284 283 284 285 284 285 285 284 282 281 281 280 281 280 280 280 282 281 279 281 279 279 278 279 280 280 280 281 282 283 283 287 291 293 293 293 293 292 292 291 291 290 290 290 290 290 290 290 289 289 289
272 272 273 273 273 273 274 275 277 276 277 277 278 278 279 280 280 281 282 283 284 285 286 286 285 286 286 286 286 286 285 284 284 283 282 282 282 282 283 283 281 280 281 281 280 277 280 280 279 279 280 281 281 282 286 290 292 293 293 292 292 292 291 291 290 290 290 290 290 290 290 289 289 289
270 271 272 272 272 273 273 276 278 278 277 277 277 278 278 279 280 281 283 286 286 284 284 285 286 286 287 288 287 287 286 284 285 285 284 284 283 281 280 279 281 280 280 281 280 279 279 279 278 278 280 280 280 280 281 287 291 292 292 292 292 292 291 291 290 290 290 290 290 290 290 289 289 289
269 270 270 271 271 271 271 275 277 278 279 276 276 276 277 278 279 280 281 285 287 288 288 288 289 289 290 290 291 291 291 287 285 284 282 281 282 280 278 279 280 279 279 279 280 280 278 278 278 278 279 279 279 279 279 281 288 291 292 292 292 292 291 290 290 290 290 290 289 289 289 289 289 288
269 270 273 273 271 271 271 276 277 278 277 274 274 274 275 275 276 277 280 281 282 286 287 288 288 289 289 290 291 291 291 291 289 283 280 282 282 280 280 279 280 280 279 278 281 279 279 279 278 277 275 277 277 278 279 280 283 289 290 291 291 291 290 290 290 290 290 290 289 289 289 289 288 286
268 269 271 273 272 272 273 276 277 278 276 274 274 274 274 274 274 276 278 279 279 280 280 282 283 284 286 287 287 287 290 290 289 286 284 284 282 280 280 280 280 279 279 280 281 277 278 277 277 277 274 272 274 276 278 279 280 284 286 287 288 290 289 290 289 289 290 289 289 289 289 288 287 284
267 267 268 270 273 275 276 276 277 277 278 275 274 274 273 273 273 277 278 279 280 280 280 280 281 282 283 283 284 285 286 287 287 288 286 284 284 282 281 281 281 279 280 281 281 278 279 278 277 278 277 274 272 274 277 277 279 282 284 285 285 287 289 289 288 289 289 289 289 288 288 288 287 282
266 267 268 269 272 274 275 275 276 276 276 276 274 274 274 274 275 277 275 277 279 279 280 280 280 281 281 282 282 283 284 284 285 286 287 286 285 283 282 281 281 281 283 282 284 280 278 277 277 278 277 275 275 273 275 277 278 280 283 283 283 285 286 285 286 286 288 288 288 288 288 288 288 283
267 268 268 268 270 273 274 275 275 276 276 277 273 273 277 278 280 277 277 276 276 277 279 280 280 280 280 280 281 281 282 283 284 285 286 286 285 285 284 283 282 281 282 283 285 281 280 277 278 277 276 275 273 275 274 274 277 278 281 282 283 283 285 284 284 284 284 284 284 286 286 288 287 286
268 268 268 268 272 274 274 275 276 276 276 276 273 277 278 279 279 279 277 277 276 276 277 278 279 279 280 279 280 280 281 282 283 284 285 286 286 285 285 285 285 284 284 282 283 282 281 279 280 278 277 277 275 273 274 273 273 277 278 280 281 282 283 283 282 282 282 283 282 286 286 287 287 286
268 268 267 268 273 274 275 275 276 276 276 274 277 278 278 278 278 275 276 276 276 277 277 277 278 279 280 280 280 280 281 282 283 283 284 285 285 285 285 285 285 285 284 282 282 282 282 280 279 280 280 278 275 273 272 275 275 275 275 278 279 279 281 282 281 281 280 281 280 282 282 282 283 283
268 271 274 275 275 275 275 276 276 275 275 276 276 276 276 276 274 274 274 275 276 276 276 277 278 279 280 280 280 281 282 282 283 283 283 284 285 285 285 285 284 284 282 281 282 282 282 282 280 280 280 279 277 276 276 274 274 274 275 275 274 277 278 279 280 279 278 278 278 279 279 279 280 281
275 275 275 275 275 275 273 271 270 269 270 273 275 276 276 273 273 274 274 274 274 275 276 277 278 279 281 281 281 281 281 281 281 281 281 282 283 284 283 283 282 282 280 281 282 282 282 282 281 280 279 279 279 278 277 275 273 274 275 275 275 277 276 276 277 278 277 276 276 276 276 277 277 277
269 270 271 270 273 273 274 275 275 274 274 273 272 272 272 273 273 274 274 274 274 275 276 277 278 280 282 282 281 280 280 280 281 281 281 281 281 282 283 282 281 280 275 277 281 282 282 281 281 280 278 278 278 279 278 277 274 274 274 275 275 272 274 275 276 275 274 274 275 274 275 275 276 277
267 267 270 270 269 269 269 269 269 269 269 270 271 271 272 272 273 274 275 276 276 276 277 278 279 280 281 281 281 280 280 280 281 281 281 280 280 280 280 279 279 279 277 274 276 279 280 281 281 280 280 279 277 277 277 276 274 274 273 275 275 275 275 273 275 275 275 274 273 273 273 274 273 275
268 267 266 266 266 266 266 267 267 268 268 269 270 270 270 271 272 273 274 274 275 276 277 277 278 279 280 280 281 281 280 280 280 281 281 281 280 278 278 278 278 278 275 273 274 275 277 278 278 280 280 280 280 279 276 274 274 274 273 274 274 273 273 274 274 274 274 273 272 272 272 273 273 274
271 270 270 270 269 268 268 267 268 268 268 268 269 269 272 272 272 273 274 275 275 277 278 278 278 279 280 280 280 280 280 280 281 281 281 280 280 276 275 276 277 277 276 275 273 273 273 273 273 273 273 272 273 276 277 277 274 274 274 274 274 272 273 273 273 274 273 272 272 271 271 271 272 273
270 269 268 268 268 268 268 268 269 269 269 269 269 269 270 271 272 273 273 273 275 277 278 278 278 278 279 279 280 280 280 280 280 280 281 280 279 277 276 275 276 275 274 273 272 272 273 272 272 271 271 271 272 271 274 273 275 274 274 273 274 273 272 273 273 273 273 272 272 270 270 270 271 272
268 267 266 266 267 267 268 269 269 269 269 269 269 269 269 269 270 271 272 274 275 276 277 278 279 278 279 279 280 280 280 279 279 279 278 278 277 276 276 276 276 275 274 273 272 272 272 272 273 272 270 270 270 270 271 275 275 275 272 271 272 272 272 272 272 272 272 271 272 271 269 268 270 272
266 266 266 267 267 268 268 269 269 269 269 269 269 269 269 269 270 271 273 274 274 275 277 278 278 278 279 279 279 279 279 278 278 277 277 277 277 276 275 275 275 274 272 272 272 271 272 272 273 273 271 270 269 269 271 271 271 275 274 272 271 271 271 271 271 270 271 271 271 271 270 270 270 271
266 267 267 267 268 268 269 269 269 270 270 270 270 270 269 270 271 272 273 274 274 275 276 277 278 279 279 279 279 279 278 278 278 276 276 276 275 274 274 274 274 272 272 272 271 270 271 272 272 273 273 270 270 270 269 266 268 271 275 274 271 271 271 270 269 269 269 271 270 271 271 270 270 271
266 267 267 267 267 268 268 269 270 270 270 270 270 270 270 270 271 272 273 273 274 275 276 277 278 279 279 278 277 277 277 276 276 275 275 275 275 274 274 273 272 271 271 269 269 270 270 271 272 273 273 272 271 272 273 268 265 270 274 275 273 271 270 270 269 269 269 269 270 271 270 272 273 274
265 266 266 267 268 268 269 269 270 271 271 271 270 270 269 270 270 271 272 273 274 275 276 277 278 278 278 278 277 276 275 275 275 275 274 274 274 274 274 273 272 270 269 268 268 268 269 270 271 272 274 272 271 272 272 270 270 271 272 274 276 273 271 271 269 269 268 269 270 268 267 269 266 270
263 264 265 266 266 267 267 268 269 270 271 271 270 271 271 270 271 271 272 274 275 275 276 276 277 277 276 276 276 276 275 275 275 275 274 274 273 273 273 272 270 270 268 268 268 268 268 270 272 274 269 269 271 272 270 267 264 267 268 271 275 274 274 273 271 270 268 270 268 267 266 266 264 267
262 262 263 264 264 265 266 267 269 271 272 272 271 271 272 272 272 274 275 276 276 276 276 276 276 276 276 276 275 275 274 274 274 274 273 273 272 272 272 271 269 269 268 268 268 268 270 271 270 270 270 270 270 269 267 268 266 267 267 269 271 274 275 274 273 273 271 269 267 264 264 266 266 263
261 261 262 263 264 265 266 268 269 270 272 273 272 272 273 273 273 274 275 275 276 275 275 275 275 276 276 277 276 274 274 274 274 274 273 272 272 271 271 270 270 269 269 269 269 269 269 269 269 268 269 269 269 270 269 268 267 267 267 267 268 270 272 274 274 274 273 273 271 269 268 265 264 260
260 260 261 263 263 264 266 268 268 269 271 272 274 274 274 274 274 275 275 275 275 274 274 274 274 275 276 276 275 275 275 274 274 273 272 271 271 271 271 271 270 269 269 268 267 267 268 268 268 269 268 267 268 268 267 267 266 266 266 267 268 268 267 269 271 273 273 273 273 272 273 272 271 271
260 260 261 262 263 264 265 267 268 268 269 270 271 272 273 274 274 275 275 275 275 275 274 274 274 274 274 273 273 272 272 273 273 272 271 271 271 271 270 270 269 268 268 267 266 266 266 266 267 268 267 267 267 267 267 266 266 265 265 265 265 266 265 265 265 265 265 265 270 272 271 271 271 271
Wind_Speed
6 6 6 7 7 7 6 5 6 7 6 6 6 7 10 9 10 12 11 11 7 4 10 8 7 12 12 12 10 10 10 11 13 11 11 11 10 13 20 21 22 22 23 22 22 21 20 19 19 18 17 16 17 18 18 17 17 16 15 15 15 14 13 13 14 13 13 12 11 11 11 10 10 10
7 6 6 6 7 6 6 7 6 6 7 7 7 7 8 7 12 12 12 14 6 5 5 9 6 6 12 11 9 10 11 11 15 11 12 11 11 14 20 21 22 22 23 23 23 23 22 21 20 19 18 18 19 20 20 19 18 17 16 15 15 14 15 15 15 14 13 12 12 12 12 12 11 11
6 7 8 7 7 6 7 7 6 6 6 7 7 7 6 8 10 11 11 14 9 6 8 9 9 8 10 10 10 9 9 10 15 12 11 12 12 15 15 19 21 22 22 22 23 23 24 23 23 22 20 20 21 21 21 21 20 18 18 17 16 15 15 15 15 14 13 13 13 12 12 12 12 11
6 7 8 8 8 8 6 7 7 7 6 6 7 7 7 9 8 9 10 13 18 4 7 7 9 12 9 10 11 11 9 9 15 11 11 11 11 11 10 19 21 21 22 23 23 23 23 24 24 23 23 22 22 22 21 22 20 19 19 18 18 17 17 16 15 14 14 13 13 13 12 12 11 11
5 6 7 8 8 7 7 8 7 7 7 6 7 6 7 8 7 7 9 13 17 9 5 5 5 6 6 7 10 11 10 9 9 12 11 9 10 10 11 11 19 21 21 23 24 23 23 24 24 24 24 23 23 23 23 23 22 22 21 19 19 18 18 17 16 15 15 14 14 13 13 12 12 10
7 7 7 9 8 7 7 8 8 8 8 7 7 7 7 8 8 7 9 12 12 17 5 6 3 3 7 10 7 12 13 12 10 11 11 9 11 11 11 10 11 19 21 22 24 23 23 23 24 24 24 24 23 24 24 24 24 23 21 20 19 20 19 17 17 17 16 16 15 14 13 12 12 11
7 8 9 9 8 6 8 8 7 7 8 8 8 9 7 8 8 7 9 10 14 15 12 6 7 6 5 10 10 12 12 12 12 14 13 12 10 10 11 10 9 15 22 23 23 24 24 24 25 24 24 24 23 24 24 24 23 23 22 22 20 20 20 19 18 18 18 17 16 16 14 13 12 11
9 9 10 10 8 7 9 9 8 7 7 8 9 9 8 8 9 7 7 10 11 11 13 8 7 5 7 9 8 6 8 9 9 11 10 8 9 9 8 10 10 11 21 23 23 23 24 25 24 25 24 24 24 24 24 23 24 24 23 22 22 20 20 20 20 19 18 18 17 16 15 14 13 12
11 11 12 12 10 8 10 10 8 8 9 8 9 10 9 8 8 7 8 10 9 11 14 13 5 6 7 7 5 6 9 8 8 7 10 11 11 10 9 7 7 8 18 21 23 22 24 25 26 26 26 26 25 25 24 24 25 24 23 23 23 21 20 20 19 19 19 18 17 17 16 15 14 13
11 11 13 13 11 10 10 11 10 8 10 9 9 10 10 9 9 9 9 8 9 11 13 12 11 5 8 6 6 7 9 10 9 8 8 6 7 8 7 8 7 7 8 10 13 17 20 24 26 26 27 26 26 25 25 25 25 25 23 24 24 22 21 21 21 19 17 17 16 16 16 16 15 14
12 13 13 14 12 12 12 12 11 11 10 9 11 10 10 9 9 10 10 9 10 11 12 12 10 10 7 8 10 7 8 10 11 13 10 11 8 7 10 10 8 8 9 11 15 14 13 16 16 23 26 27 28 27 26 26 26 25 24 25 24 23 23 22 21 19 18 17 16 15 15 15 15 14
13 13 14 14 14 13 13 12 12 11 11 10 11 10 9 9 10 10 10 10 10 11 12 12 11 8 8 6 7 1 5 8 10 11 11 12 10 11 12 13 12 11 11 12 11 12 12 13 17 21 26 28 28 28 25 27 25 25 26 26 25 24 23 23 22 21 20 19 17 17 16 15 15 15
14 13 12 13 13 15 17 21 19 17 15 11 11 11 9 9 10 10 10 10 10 11 11 12 10 10 8 9 9 8 9 14 16 6 6 10 11 9 7 9 10 9 11 10 9 11 12 11 10 11 12 15 23 23 24 20 26 25 27 28 26 26 25 24 23 22 21 20 19 18 17 16 15 14
14 13 13 13 19 21 22 22 23 23 23 22 17 14 11 10 11 11 11 11 10 10 12 12 11 11 12 12 11 12 13 10 3 7 12 13 8 6 9 9 10 10 10 9 11 11 9 11 11 11 13 11 14 12 15 14 17 23 28 29 27 26 26 25 25 23 22 21 20 19 18 17 16 15
13 13 12 12 15 17 17 17 21 21 24 24 25 25 23 18 14 12 13 13 11 11 12 12 12 12 14 15 10 12 11 8 11 12 11 11 9 12 13 15 7 10 12 12 9 10 10 11 13 13 14 12 12 13 14 21 24 26 28 29 29 27 26 26 25 25 24 23 22 21 19 18 18 17
12 14 12 11 10 12 13 15 15 16 19 22 23 24 24 24 25 23 18 15 13 12 12 14 14 13 15 15 10 9 9 10 10 10 10 12 14 13 14 14 14 7 15 11 11 14 9 11 13 14 14 13 12 15 16 24 27 27 27 29 30 27 27 27 26 25 25 24 23 22 21 20 19 18
14 12 13 12 12 11 21 18 13 14 14 16 21 25 26 26 26 25 27 27 21 14 14 14 16 15 14 15 12 10 10 8 12 12 13 13 13 13 14 15 12 6 15 12 11 14 13 14 16 16 15 13 12 12 16 24 26 27 28 29 29 28 28 27 27 26 26 25 24 23 22 21 20 19
13 15 15 14 14 13 14 12 14 13 12 14 15 15 15 15 19 23 27 28 29 25 18 16 18 17 14 15 12 9 9 12 14 13 14 13 13 14 18 14 4 6 14 18 15 13 13 14 14 16 13 10 12 13 16 26 27 28 29 28 29 29 28 28 27 27 26 26 25 24 23 21 21 19
15 15 16 15 16 16 14 10 19 16 17 16 17 16 17 16 16 16 16 16 16 16 16 17 19 20 17 15 16 12 9 14 14 14 16 16 15 15 13 9 8 10 13 15 12 15 14 10 12 16 13 10 13 12 16 25 28 29 29 28 29 29 30 28 28 27 27 26 25 25 23 22 21 20
16 15 13 13 13 15 16 21 30 26 21 19 19 19 18 17 17 17 17 18 17 17 15 16 18 18 17 17 16 15 12 11 11 10 10 9 10 12 12 15 12 11 9 14 13 11 7 9 15 14 10 10 13 11 11 21 29 29 30 30 30 30 30 29 28 27 27 26 26 25 24 23 22 21
17 17 16 14 15 17 17 24 29 29 27 19 20 21 22 19 16 16 15 23 25 25 27 26 24 25 24 23 23 23 25 16 10 8 9 13 11 12 14 14 12 12 9 11 14 12 8 8 13 10 8 12 13 11 12 12 22 30 30 30 31 30 29 29 28 27 26 26 25 25 25 24 22 21
16 18 27 24 19 19 19 24 27 27 23 18 19 20 20 21 20 19 16 14 15 22 26 29 30 30 29 27 26 26 25 25 17 12 15 13 11 13 14 17 13 10 9 11 14 9 14 7 7 7 1 4 6 9 8 8 11 23 26 30 30 29 28 28 28 27 26 26 26 25 25 24 22 15
16 17 17 24 23 22 24 31 29 30 25 18 17 17 18 20 21 19 17 17 16 14 14 16 18 20 24 22 19 18 26 26 22 17 16 13 13 14 17 15 10 10 12 13 16 13 11 7 8 9 5 6 4 4 7 10 10 11 12 15 20 27 27 28 27 27 27 26 26 26 25 25 21 9
14 16 16 18 24 27 28 28 28 27 28 20 17 16 17 18 23 16 16 16 15 16 16 17 17 18 16 15 14 15 16 18 18 18 16 15 14 15 16 14 14 15 12 6 17 15 8 7 10 10 10 7 7 7 9 9 11 11 11 12 12 22 26 26 23 29 26 26 28 27 26 26 21 9
14 13 14 14 19 26 29 30 32 33 32 30 22 18 16 17 21 23 19 21 28 20 18 17 16 16 15 15 13 13 13 14 13 15 16 16 16 16 15 15 15 15 13 8 23 13 9 8 11 8 8 3 3 5 7 9 10 11 12 13 12 13 14 14 11 14 22 27 28 28 26 26 26 13
13 13 13 12 20 31 31 31 32 33 31 31 21 23 32 36 34 24 18 17 17 18 18 16 16 15 15 14 13 13 13 13 14 14 14 15 16 17 15 16 16 14 15 12 26 16 11 8 11 13 11 6 1 5 8 8 9 10 9 9 11 11 13 12 12 12 12 13 14 18 19 26 25 22
14 11 12 14 25 30 32 31 32 31 33 28 22 31 33 33 36 31 18 17 16 16 18 18 17 16 15 15 14 14 13 13 13 13 13 15 15 15 16 16 15 16 10 10 17 15 14 10 11 14 14 12 8 5 7 9 8 9 9 9 9 9 9 9 10 11 11 11 10 21 22 25 25 23
14 14 14 16 28 31 32 32 32 32 31 25 33 33 33 34 32 21 18 15 16 16 17 18 19 18 16 15 14 14 13 13 13 13 13 14 15 15 14 15 16 15 10 10 15 14 14 12 10 12 13 13 12 12 10 5 4 13 15 12 9 9 9 10 11 10 10 10 9 11 10 11 12 13
15 22 33 35 33 32 33 34 33 28 28 31 30 32 33 31 17 15 14 15 16 17 18 18 19 18 17 15 15 14 13 12 11 11 11 11 12 12 13 13 13 13 6 9 12 13 13 13 12 12 11 10 12 11 10 11 12 12 11 12 10 11 10 9 9 10 10 10 11 11 11 12 11 11
36 36 35 38 36 32 27 20 15 14 15 24 29 31 31 18 14 13 14 16 16 17 18 18 19 18 15 14 14 13 12 12 12 11 11 10 10 10 11 11 12 9 8 9 10 11 13 12 10 12 12 11 13 11 10 9 8 9 13 15 13 7 8 11 13 13 13 12 11 10 7 8 8 10
21 25 26 21 27 25 33 33 31 28 27 22 18 14 13 13 14 13 14 15 16 17 18 17 17 16 17 14 13 12 12 12 12 11 11 11 11 11 10 11 11 10 4 3 7 10 12 12 11 12 13 12 11 10 8 7 10 11 10 10 11 14 13 12 10 8 6 7 10 6 5 6 5 5
17 16 20 24 17 16 16 16 13 13 13 14 14 12 11 11 14 18 26 25 19 19 19 17 17 17 15 15 14 12 12 12 11 11 11 12 11 11 10 10 11 10 8 5 5 6 9 11 10 10 13 13 14 8 5 7 9 10 10 10 9 6 6 14 15 13 9 8 9 8 7 7 7 6
13 13 13 11 12 12 13 13 12 12 11 12 13 15 13 12 11 12 9 13 13 17 17 17 17 16 15 14 12 12 12 12 12 10 11 11 11 8 9 12 11 10 9 8 7 6 6 6 4 8 9 9 10 12 12 9 8 9 12 12 11 10 7 11 7 10 12 11 11 10 7 7 6 7
13 10 10 9 9 10 10 12 12 12 12 11 11 10 13 13 11 12 12 12 13 15 16 15 14 14 13 12 13 13 13 11 11 12 13 11 10 9 11 11 12 10 10 11 9 8 6 5 6 6 6 5 4 3 9 13 12 11 10 11 11 11 9 10 7 10 8 10 12 12 7 6 7 6
10 9 9 10 10 11 11 11 13 13 14 13 12 12 11 11 12 12 11 12 13 14 14 14 13 12 13 13 10 10 11 12 11 10 11 10 10 11 11 12 12 10 10 9 9 8 9 9 9 7 5 4 3 2 3 1 10 11 10 10 11 12 12 11 10 7 9 7 7 11 6 4 6 6
10 9 10 10 10 9 11 11 12 12 12 12 12 11 10 11 11 11 10 11 10 12 13 12 11 11 12 13 13 13 12 12 11 11 10 11 10 10 10 12 12 10 10 10 10 9 9 10 11 12 11 9 10 9 9 5 4 10 14 11 9 9 9 11 11 9 7 8 7 7 11 9 7 8
11 10 10 11 11 11 11 12 11 11 11 12 11 11 11 11 12 12 11 13 13 13 13 12 11 11 12 12 11 11 12 12 11 10 11 10 10 10 11 10 10 9 10 9 9 10 10 11 11 13 13 12 12 15 11 4 0 4 9 13 11 11 12 11 11 11 5 6 6 7 8 7 7 8
10 10 10 11 11 12 11 12 12 12 12 11 12 11 12 11 10 10 10 11 12 11 12 11 11 11 12 11 13 12 10 9 10 10 10 10 10 10 11 11 10 9 10 9 9 11 10 12 13 13 14 15 15 14 11 2 4 5 6 9 12 10 10 11 11 12 11 4 4 6 5 4 5 6
11 10 11 11 11 11 13 12 14 13 14 12 11 11 10 9 9 10 11 11 11 11 11 12 11 10 10 8 8 8 9 9 10 11 11 11 12 12 11 11 9 8 8 9 8 9 9 11 13 14 14 15 17 16 13 11 9 7 8 12 12 13 12 14 13 11 11 11 8 5 5 5 7 9
13 12 11 11 13 12 13 13 14 13 12 12 10 9 9 10 10 10 10 11 11 11 11 11 11 9 8 9 9 7 8 10 10 9 9 10 10 12 12 11 11 11 10 10 10 10 11 12 12 13 12 6 0 4 7 7 5 4 6 12 16 11 13 13 12 12 10 6 7 9 9 6 4 5
12 12 10 12 12 12 14 13 13 14 12 11 10 9 10 10 10 11 11 11 11 11 11 10 9 7 6 5 5 7 9 8 9 10 10 11 11 12 13 12 9 9 11 11 12 11 13 12 5 9 9 7 9 11 10 9 10 9 8 6 13 8 8 7 8 8 9 9 9 11 10 9 6 5
12 13 12 11 12 13 14 13 13 13 13 10 9 9 9 9 10 15 14 15 14 12 10 9 8 7 6 6 7 7 8 9 9 9 9 9 9 9 10 9 9 10 10 11 13 12 7 7 9 8 7 8 9 10 10 11 11 9 7 7 7 12 15 13 11 10 9 12 12 9 6 4 4 4
12 12 13 13 13 12 12 13 13 13 13 10 9 9 9 10 10 11 10 11 10 9 9 8 7 7 7 6 6 8 8 9 9 10 10 10 10 11 11 11 11 12 12 8 5 7 7 7 7 8 7 7 6 8 10 9 10 11 10 9 8 7 8 14 15 15 14 14 10 7 5 5 7 7
9 12 11 12 12 12 12 13 13 13 12 12 11 9 8 9 10 10 9 9 9 8 7 7 6 6 7 6 6 7 7 7 7 9 9 10 10 10 11 10 9 8 7 7 8 8 7 7 7 8 8 7 5 6 8 9 9 9 10 10 8 10 9 8 9 13 13 15 15 12 10 8 5 4
10 10 11 12 12 11 11 12 12 12 12 12 11 9 10 9 9 9 9 8 7 7 6 6 6 5 5 5 6 6 6 5 6 6 6 7 7 7 7 8 8 8 8 8 10 9 8 7 6 5 4 3 2 5 8 11 11 10 9 10 11 9 8 9 9 9 8 6 8 10 8 6 4 2
Wind_Direction
285 281 274 269 277 277 268 260 256 255 256 250 247 235 244 249 257 268 266 257 237 245 206 226 234 207 216 218 216 213 212 210 200 203 208 211 213 218 215 215 214 208 204 200 199 197 198 201 204 207 212 219 225 226 225 224 227 222 215 210 210 201 204 199 201 198 195 196 195 195 193 193 190 190
294 286 287 277 274 271 272 263 250 251 250 252 246 242 244 238 251 260 265 270 205 241 226 215 233 201 220 216 216 212 216 204 199 205 208 209 212 213 213 214 216 214 209 204 201 199 198 199 199 202 208 213 219 222 221 221 220 220 215 213 211 206 203 205 202 200 198 198 197 194 192 191 190 188
300 296 293 288 280 274 270 270 265 252 251 251 247 250 239 242 244 256 263 274 257 170 231 231 225 216 218 210 216 216 220 206 203 207 208 211 207 204 213 214 217 217 213 208 204 201 200 201 201 201 204 208 214 220 218 219 218 216 212 210 208 207 207 208 204 201 201 200 199 197 194 193 190 188
294 293 292 287 283 281 278 277 270 264 249 244 250 246 243 248 242 248 255 257 267 196 225 225 221 216 213 204 209 216 217 215 207 210 211 211 195 206 213 216 216 218 215 212 207 204 202 202 202 203 203 206 211 215 217 216 215 212 208 208 207 208 209 205 204 199 199 201 201 199 197 194 191 192
287 280 278 280 279 280 279 275 274 272 261 250 245 244 246 249 242 236 251 259 269 265 225 251 228 232 203 224 210 212 212 210 211 211 215 203 201 205 210 214 216 216 216 214 212 208 206 204 204 203 204 206 208 210 212 214 212 213 211 210 209 205 207 202 197 197 196 198 201 198 196 194 190 187
292 287 285 284 281 271 265 271 273 269 270 262 255 245 232 245 248 216 241 258 264 272 246 271 248 244 198 231 203 205 207 212 206 212 211 205 204 206 207 208 214 214 214 213 214 213 209 207 205 204 204 205 207 210 211 211 211 211 210 210 210 208 205 201 194 195 197 197 195 192 193 193 190 183
285 284 277 273 273 278 275 269 261 263 264 262 260 259 239 243 241 226 225 249 262 267 269 220 246 217 221 216 219 208 215 213 204 209 209 205 207 211 206 207 213 214 213 213 214 213 214 212 209 207 204 203 205 208 210 211 210 209 208 207 208 210 206 201 196 197 199 197 192 192 193 192 188 184
284 279 282 275 268 265 269 268 264 257 256 260 263 263 257 248 252 230 221 232 252 265 272 245 223 220 211 237 234 218 224 214 210 214 218 213 214 212 210 212 212 213 213 214 214 214 214 215 212 210 205 204 204 206 209 211 212 210 208 207 206 208 207 205 201 195 195 196 194 193 192 188 186 185
284 283 276 276 275 267 269 269 263 256 255 255 258 262 263 257 255 247 231 236 236 255 259 265 223 222 228 240 231 203 204 216 219 216 217 211 214 211 213 215 218 213 217 217 215 215 215 214 213 212 208 204 204 205 206 210 213 210 207 206 206 204 203 202 199 198 198 198 197 196 190 187 186 186
280 277 277 277 275 270 265 268 267 260 259 258 257 258 261 260 259 259 251 241 244 243 255 259 262 213 229 240 233 204 200 200 209 221 226 225 215 207 208 215 210 206 210 212 216 216 217 217 215 214 212 206 204 204 205 207 212 211 208 208 206 202 199 197 198 197 197 199 200 198 194 189 187 187
279 276 275 275 272 268 264 265 266 265 262 259 258 255 259 255 258 259 258 252 247 248 254 256 250 252 225 218 235 219 201 211 208 207 204 218 210 204 208 215 211 207 214 225 220 213 211 215 217 218 216 211 207 204 203 204 207 210 207 207 203 201 199 199 196 195 196 197 198 198 196 193 191 188
276 274 273 271 270 266 264 263 263 260 262 259 260 256 253 252 252 253 257 256 251 253 254 254 256 238 235 224 242 149 175 219 235 221 204 210 202 208 212 214 207 209 208 210 214 218 214 215 215 216 219 217 212 207 205 204 204 206 206 204 201 198 198 197 195 193 195 196 197 198 198 198 195 191
284 281 275 272 269 266 262 259 258 257 254 255 262 257 250 248 251 253 253 253 252 253 254 258 252 250 232 226 213 205 205 209 223 197 181 223 215 207 220 233 227 212 208 216 209 212 206 204 207 207 213 218 215 211 205 203 202 201 203 204 200 199 197 195 192 192 192 194 195 198 198 197 198 199
279 278 279 279 276 273 270 267 265 262 260 256 252 256 254 249 251 252 253 250 248 251 254 253 253 248 246 234 215 220 222 222 193 170 199 218 203 171 220 236 224 208 201 202 214 218 202 200 209 208 217 216 210 212 206 202 197 199 202 203 202 199 197 195 192 191 191 192 193 195 196 196 199 202
280 277 275 276 278 279 278 275 270 264 263 262 259 256 254 249 246 253 252 249 245 247 249 253 252 249 251 246 222 220 221 205 208 212 203 209 193 200 200 223 223 195 189 204 211 225 208 200 210 211 214 209 207 211 209 201 196 199 201 203 203 199 197 195 193 192 190 190 192 193 194 195 197 200
279 281 281 277 276 274 274 276 276 271 268 266 264 262 259 257 250 243 242 248 250 241 247 249 248 248 247 252 235 223 209 208 207 218 208 208 205 207 213 221 221 185 177 184 202 225 204 204 217 218 216 208 207 211 209 201 199 198 199 202 204 200 198 196 195 193 190 189 190 191 193 195 197 199
282 284 283 283 277 273 277 278 276 279 279 273 269 267 265 261 256 250 245 243 243 244 244 246 250 242 249 253 244 223 215 187 209 206 215 214 217 218 221 224 219 139 173 176 208 223 210 193 214 221 216 205 203 210 211 207 202 198 199 199 200 199 198 197 195 194 192 190 190 190 191 193 196 198
281 281 286 287 286 285 285 283 284 283 280 282 279 274 266 261 258 255 250 249 247 243 242 242 248 248 239 248 251 233 195 198 211 209 217 213 217 219 226 228 189 140 173 185 193 221 215 197 209 222 222 193 205 208 207 208 206 201 200 198 199 199 198 196 195 194 192 190 189 189 190 192 195 197
292 288 283 281 280 283 282 278 282 282 281 280 277 272 268 263 259 256 253 248 246 244 243 243 246 250 244 243 248 242 213 216 216 211 213 211 213 222 235 245 205 199 193 191 185 218 221 181 202 223 210 193 209 207 207 208 208 205 200 197 198 198 199 196 196 194 193 190 188 187 188 190 193 196
285 284 281 282 281 281 279 281 281 281 282 281 280 276 270 265 259 255 249 246 242 242 241 243 246 249 246 240 240 239 229 227 226 222 224 220 215 217 222 228 218 215 189 194 194 225 222 164 201 220 199 194 213 206 207 210 209 207 204 200 197 197 198 196 196 194 193 191 188 187 188 189 192 195
287 285 284 282 282 280 279 282 284 283 282 280 277 275 276 275 272 264 257 251 248 245 246 246 244 246 246 242 239 239 235 227 214 212 212 219 208 216 224 232 222 222 184 201 205 215 216 188 199 207 190 197 209 203 206 208 209 208 206 202 199 195 195 195 194 194 193 192 190 188 188 188 190 192
287 287 288 289 289 291 291 292 289 286 282 276 276 278 278 278 274 270 266 263 255 247 247 249 249 249 249 246 242 241 240 236 222 203 219 217 210 220 222 231 221 224 196 203 197 202 227 179 179 179 173 192 224 209 204 201 216 214 210 208 203 195 194 193 192 193 194 193 192 190 188 188 188 188
287 288 288 288 287 286 285 286 286 285 283 277 275 272 272 270 270 267 268 264 261 255 249 248 249 250 250 249 244 242 241 237 232 220 221 216 214 219 226 229 228 231 228 206 177 197 222 143 196 162 126 209 247 186 189 193 200 204 203 203 205 197 193 191 191 193 194 194 193 193 190 188 186 177
284 287 288 288 289 289 289 290 291 292 288 280 267 262 262 265 267 272 278 277 268 259 250 247 243 246 246 245 240 239 239 238 232 230 223 220 216 222 230 223 220 228 231 165 163 199 210 155 183 186 185 156 206 196 187 191 194 202 195 195 195 195 190 188 192 193 194 194 196 195 191 190 186 170
277 278 280 284 288 291 291 290 289 287 285 285 286 281 268 256 263 270 270 273 274 272 264 251 246 245 242 243 238 235 235 232 229 228 227 222 219 220 226 225 223 236 232 161 168 190 196 172 193 174 218 200 185 131 197 185 196 195 195 191 189 186 184 187 183 189 195 196 199 197 193 192 189 176
273 274 278 278 282 284 283 285 284 284 283 280 275 272 276 277 275 270 264 263 264 264 266 261 249 243 237 239 236 233 231 229 225 226 226 225 222 221 224 223 223 232 229 176 174 186 182 190 187 184 201 172 273 154 152 192 192 197 195 193 193 187 184 180 178 184 183 191 195 197 194 194 194 185
276 273 270 270 276 277 280 281 281 281 280 280 276 275 275 273 272 271 266 260 256 256 257 257 253 244 237 233 234 230 232 228 224 225 223 227 225 224 226 226 227 233 229 158 185 186 191 197 185 189 192 199 180 162 170 166 191 185 194 194 189 182 182 176 182 182 179 182 185 193 193 195 195 189
276 277 272 267 272 275 277 278 279 280 279 277 277 276 276 276 276 276 278 271 259 250 250 252 250 245 236 233 230 228 227 228 221 222 223 226 227 225 226 227 229 231 222 170 187 193 194 194 187 199 198 187 184 182 195 200 160 177 182 185 179 181 181 182 182 178 176 175 175 186 182 186 187 183
275 274 277 278 278 279 282 287 290 290 289 287 285 282 280 279 275 273 269 271 269 257 249 247 250 246 239 231 230 225 225 226 225 223 226 225 226 226 227 229 228 227 192 180 192 194 198 200 193 188 194 197 197 202 182 185 170 183 179 163 183 194 185 179 176 177 179 178 182 185 185 179 177 180
276 278 279 281 286 290 290 288 280 272 269 270 271 274 275 271 268 267 271 269 267 261 254 250 249 248 241 232 226 222 218 217 220 216 220 218 220 216 220 223 227 216 190 186 189 194 199 202 191 183 192 199 205 200 189 157 190 186 179 185 183 155 175 162 181 182 180 180 181 180 139 177 171 163
270 271 272 270 268 269 275 278 277 276 277 278 276 272 267 267 266 265 266 268 268 264 257 251 249 248 241 231 221 218 212 216 217 211 214 214 219 209 214 217 223 212 214 229 199 194 196 199 190 179 189 199 204 208 188 174 171 176 187 191 170 181 188 169 165 170 150 155 166 141 127 142 162 171
255 255 260 263 260 263 265 268 266 265 262 260 263 261 264 265 266 267 269 270 269 266 258 249 250 248 243 232 219 214 212 214 214 207 209 211 215 207 200 213 220 212 198 202 219 217 204 197 190 190 195 191 194 185 144 167 178 179 182 186 191 190 157 175 182 183 158 137 162 174 173 171 167 166
249 242 252 246 254 250 257 256 256 257 256 260 260 262 260 258 256 262 262 266 266 268 253 243 241 246 241 237 223 215 213 213 213 203 210 209 212 198 197 211 213 207 198 201 199 201 195 193 182 187 193 200 200 180 163 176 191 179 181 184 187 188 146 181 163 160 155 157 177 175 164 171 171 172
302 295 285 279 273 271 271 272 272 269 264 260 256 248 260 262 262 261 262 269 277 275 255 239 238 239 239 231 219 213 213 211 211 206 208 209 201 190 197 207 215 207 200 202 186 181 162 135 113 83 73 67 34 175 191 187 181 181 183 183 182 185 169 168 147 157 158 174 167 152 161 169 171 170
295 293 288 284 279 275 273 274 274 274 272 265 259 255 252 252 257 262 270 272 276 277 266 248 241 238 236 240 236 223 211 209 207 205 204 203 199 197 198 206 210 201 196 190 181 181 167 158 143 124 96 99 112 321 8 275 180 179 177 184 183 178 172 170 161 141 145 147 151 161 159 113 167 170
303 296 293 291 283 281 279 276 275 273 270 267 260 258 255 261 262 258 259 269 273 278 273 258 247 241 239 237 233 227 222 211 208 197 197 195 197 199 204 208 208 199 190 191 179 172 172 172 168 168 172 176 184 195 220 223 214 181 171 176 171 164 164 164 166 156 146 161 171 161 169 175 167 168
306 301 294 288 286 281 274 275 274 271 268 264 257 250 253 254 258 260 261 269 273 273 272 265 256 248 243 238 234 224 212 201 201 191 191 191 190 194 200 209 208 192 186 190 174 171 173 179 184 181 181 185 189 205 201 96 243 262 179 166 164 167 161 158 160 168 163 157 151 171 164 150 161 169
290 287 280 281 281 283 280 279 279 275 272 265 263 258 252 250 253 260 262 264 267 270 270 265 259 252 245 235 228 219 208 197 193 185 186 185 188 196 201 202 199 188 189 176 171 177 182 183 187 190 186 190 196 205 191 148 164 205 192 175 157 154 152 155 166 169 169 147 133 149 134 124 157 159
310 302 299 296 293 290 291 288 288 282 278 273 267 259 256 252 255 261 262 264 267 270 270 264 258 250 241 227 208 196 191 190 192 189 186 188 190 195 198 200 191 185 171 172 172 182 183 190 193 194 195 194 201 202 187 163 172 167 164 170 156 155 168 171 171 167 164 160 152 120 68 86 91 123
301 298 297 299 298 300 298 294 290 285 280 274 264 257 257 260 260 262 263 264 265 265 262 258 259 260 242 224 204 190 184 188 191 188 188 189 194 196 197 193 188 176 176 177 174 184 191 198 197 200 203 200 84 84 98 116 93 96 141 179 182 175 173 166 162 158 157 141 125 130 144 140 124 173
307 303 303 303 301 299 300 298 294 288 280 271 260 253 252 251 253 253 255 258 261 262 260 252 246 237 219 215 208 190 192 193 195 192 190 192 193 195 195 185 178 174 176 184 184 185 197 201 163 100 92 114 124 105 100 104 130 154 157 152 174 143 134 138 135 138 145 143 146 152 153 154 152 155
309 305 302 300 300 302 301 295 298 302 296 280 262 255 254 254 253 258 259 261 258 254 250 249 245 240 229 202 194 189 193 192 194 196 192 192 192 194 188 175 175 178 181 186 190 193 163 111 117 123 131 127 138 149 168 165 155 149 141 138 131 154 153 145 136 136 145 150 148 141 125 109 121 128
310 304 302 302 299 296 298 303 309 314 313 301 276 266 261 261 261 264 263 262 259 252 247 245 239 235 235 219 202 196 200 202 197 195 189 187 184 180 180 183 184 182 187 181 133 123 130 136 130 134 150 155 168 170 171 161 150 148 146 139 142 135 142 152 151 153 149 147 143 134 132 142 147 174
302 305 301 302 304 303 303 310 315 317 318 323 317 299 276 265 265 267 267 264 258 249 239 236 234 227 224 209 200 199 204 201 188 183 180 184 183 183 183 178 169 163 156 139 136 139 131 135 147 152 154 167 161 132 140 135 142 149 147 141 133 134 140 135 142 146 147 155 161 158 144 134 123 117
305 304 307 308 308 306 310 313 318 318 322 324 323 321 318 308 293 286 283 276 262 254 240 227 221 215 198 177 170 185 187 172 170 174 169 169 171 166 159 152 149 147 148 147 139 139 138 137 141 138 132 113 94 142 144 145 145 141 140 140 138 135 131 133 131 128 118 82 108 121 121 118 107 119